FW4338 Weather Reports


time (UTC)temp
C
wind
direction
speed
KPH
gust
KPH
rain 1hr
cm
rain 24hr
cm
rain mn
cm
humidity
%
barometer
mb
20260504045130 13 202 0.0 1.6 0.00 0.00 0.00 64 1067.9
20260504044114 13 202 3.2 6.4 0.00 0.00 0.00 63 1067.9
20260504042131 14 202 0.0 1.6 0.00 0.00 0.00 62 1068.0
20260504041229 14 202 3.2 4.8 0.00 0.00 0.00 61 1068.1
20260504040231 14 202 3.2 4.8 0.00 0.00 0.00 60 1068.1
20260504035329 15 202 3.2 4.8 0.00 0.00 0.00 60 1068.3
20260504034329 15 202 3.2 4.8 0.00 0.00 0.00 61 1068.3
20260504033329 15 202 1.6 4.8 0.00 0.00 0.00 59 1068.2
20260504032413 15 202 3.2 4.8 0.00 0.00 0.00 60 1068.4
20260504031429 15 202 1.6 3.2 0.00 0.00 0.00 59 1068.3
20260504030431 15 202 1.6 3.2 0.00 0.00 0.00 59 1068.5
20260504024430 15 202 1.6 4.8 0.00 0.00 0.00 58 1068.5
20260504023429 15 202 0.0 0.0 0.00 0.00 0.00 58 1068.4
20260504022429 15 202 1.6 3.2 0.00 0.00 0.00 57 1068.5
20260504015431 15 247 0.0 1.6 0.00 0.00 0.00 55 1068.3
20260504014528 15 247 0.0 0.0 0.00 0.00 0.00 53 1068.2
20260504011613 17 247 0.0 0.0 0.00 0.00 0.00 48 1067.9
20260504004814 18 247 1.6 3.2 0.00 0.00 0.00 45 1067.7
20260504003830 18 247 3.2 3.2 0.00 0.00 0.00 44 1067.7
20260504002830 18 202 0.0 1.6 0.00 0.00 0.00 44 1067.7
20260504001828 18 247 3.2 4.8 0.00 0.00 0.00 42 1067.6
20260504000915 19 226 4.8 8.0 0.00 0.00 0.00 43 1067.7
20260504000012 19 242 3.2 6.4 0.00 0.00 0.00 43 1067.7
20260503235028 19 247 3.2 8.0 0.00 0.00 0.00 42 1067.8
20260503234030 19 275 6.4 9.7 0.00 0.00 0.00 42 1067.8
20260503232128 20 254 6.4 9.7 0.00 0.00 0.00 41 1067.7
20260503230128 19 227 8.0 9.7 0.00 0.00 0.00 43 1067.8
20260503225129 19 240 4.8 8.0 0.00 0.00 0.00 43 1067.9
20260503224128 19 207 4.8 8.0 0.00 0.00 0.00 41 1067.9
20260503223228 19 199 9.7 17.7 0.00 0.00 0.00 42 1068.1
20260503222312 18 237 6.4 16.1 0.00 0.00 0.00 42 1068.2
20260503221329 18 225 11.3 19.3 0.00 0.00 0.00 43 1068.2
20260503215329 18 211 17.7 27.4 0.00 0.00 0.00 43 1068.2
20260503214328 18 239 11.3 22.5 0.00 0.00 0.00 41 1068.4
20260503213414 18 216 11.3 17.7 0.00 0.00 0.00 41 1068.9
20260503212429 18 216 11.3 19.3 0.00 0.00 0.00 42 1068.7
20260503210530 17 245 11.3 16.1 0.00 0.00 0.00 42 1069.0
20260503205528 18 218 11.3 33.8 0.00 0.00 0.00 41 1069.3
20260503204528 17 243 14.5 25.7 0.00 0.00 0.00 43 1069.4
20260503201728 17 208 11.3 22.5 0.00 0.00 0.00 47 1070.2
20260503200815 17 243 8.0 11.3 0.00 0.00 0.00 48 1070.6
20260503195830 16 225 11.3 20.9 0.00 0.00 0.00 48 1071.0
20260503194928 16 221 9.7 17.7 0.00 0.00 0.00 47 1071.1
20260503193929 16 227 11.3 17.7 0.00 0.00 0.00 47 1071.3
20260503192930 16 202 3.2 6.4 0.00 0.00 0.00 48 1071.2
20260503191930 16 189 6.4 16.1 0.00 0.00 0.00 48 1071.2
20260503191029 15 210 6.4 19.3 0.00 0.00 0.00 47 1071.4
20260503190928 15 211 11.3 16.1 0.00 0.00 0.00 48 1071.3
20260503184930 15 190 8.0 12.9 0.00 0.00 0.00 50 1071.5
20260503183930 15 202 8.0 19.3 0.00 0.00 0.00 51 1071.7
20260503182931 14 197 6.4 8.0 0.00 0.00 0.00 53 1071.9
20260503180013 13 191 9.7 20.9 0.00 0.00 0.00 54 1072.7
20260503175030 13 218 9.7 19.3 0.00 0.00 0.00 55 1073.2
20260503174129 13 210 11.3 27.4 0.00 0.00 0.00 57 1073.1
20260503170328 11 207 9.7 17.7 0.00 0.00 0.00 66 1074.4
20260503130929 10 232 4.8 9.7 0.00 0.00 0.00 55 1076.7
20260503110127 8 194 3.2 11.3 0.00 0.00 0.00 55 1076.2
20260503081629 7 191 3.2 11.3 0.00 0.00 0.00 53 1077.2
20260503080630 7 202 3.2 8.0 0.00 0.00 0.00 53 1077.1
20260503072914 7 202 3.2 6.4 0.00 0.00 0.00 54 1077.2
20260503071928 7 202 1.6 4.8 0.00 0.00 0.00 55 1077.3
20260503070930 7 202 3.2 4.8 0.00 0.00 0.00 55 1077.4
20260503054028 7 202 1.6 1.6 0.00 0.00 0.00 58 1078.2
20260503053127 7 202 1.6 4.8 0.00 0.00 0.00 57 1078.3
20260503051230 7 202 1.6 4.8 0.00 0.00 0.00 58 1078.3
20260503050327 7 202 0.0 4.8 0.00 0.00 0.00 57 1078.3